VE3VGJ Weather Reports


time (UTC)temp
C
wind
direction
speed
KPH
gust
KPH
rain 1hr
cm
rain 24hr
cm
rain mn
cm
humidity
%
barometer
mb
20260504030219 6 35 0.0 0.0 0.00 0.15 0.15 92 1007.6
20260504025715 6 35 0.0 0.0 0.00 0.15 0.15 92 1007.7
20260504025212 6 35 0.0 0.0 0.00 0.15 0.15 92 1007.7
20260504024709 6 99 0.0 0.0 0.00 0.15 0.15 92 1007.7
20260504024205 6 100 1.6 1.6 0.00 0.15 0.15 92 1007.9
20260504023702 6 128 0.0 0.0 0.00 0.15 0.15 92 1007.8
20260504023158 6 128 0.0 0.0 0.00 0.15 0.15 92 1008.0
20260504022654 6 128 3.2 3.2 0.00 0.15 0.15 92 1007.9
20260504022150 6 83 0.0 0.0 0.00 0.15 0.15 92 1008.0
20260504021648 6 65 1.6 1.6 0.00 0.15 0.15 92 1007.8
20260504021145 6 64 0.0 0.0 0.00 0.15 0.15 92 1008.0
20260504020642 6 64 0.0 0.0 0.00 0.15 0.15 92 1008.1
20260504020138 6 64 0.0 0.0 0.00 0.15 0.15 92 1008.0
20260504015635 6 65 0.0 0.0 0.00 0.15 0.15 92 1008.1
20260504015131 6 64 0.0 0.0 0.00 0.15 0.15 92 1008.0
20260504014627 6 65 0.0 0.0 0.00 0.15 0.15 92 1008.1
20260504014124 6 58 0.0 0.0 0.00 0.15 0.15 91 1007.9
20260504013621 6 58 0.0 0.0 0.00 0.15 0.15 91 1007.7
20260504013118 6 59 0.0 0.0 0.00 0.15 0.15 91 1008.0
20260504012616 6 50 0.0 0.0 0.00 0.15 0.15 91 1007.6
20260504012114 6 54 0.0 0.0 0.00 0.15 0.15 91 1007.9
20260504011610 6 47 0.0 1.6 0.00 0.15 0.15 91 1007.8
20260504011107 6 31 3.2 3.2 0.13 0.15 0.15 90 1007.8
20260504010602 6 39 1.6 1.6 0.13 0.15 0.15 90 1008.1
20260504010058 6 16 4.8 4.8 0.00 0.13 0.13 90 1008.1
20260504005555 5 356 1.6 1.6 0.00 0.13 0.13 90 1008.2
20260504005053 5 9 0.0 1.6 0.00 0.13 0.13 90 1008.1
20260504004550 5 32 6.4 4.8 0.00 0.13 0.13 90 1008.0
20260504004047 5 68 1.6 1.6 0.00 0.13 0.13 90 1008.0
20260504003543 5 69 1.6 1.6 0.00 0.13 0.13 90 1008.0
20260504003040 5 69 0.0 0.0 0.00 0.13 0.13 90 1008.0
20260504002537 5 125 3.2 3.2 0.00 0.13 0.13 89 1008.1
20260504002035 5 139 3.2 3.2 0.00 0.13 0.13 89 1007.9
20260504001532 5 114 4.8 4.8 0.00 0.13 0.13 89 1008.0
20260504001028 6 136 6.4 6.4 0.00 0.13 0.13 90 1007.9
20260504000525 6 140 1.6 3.2 0.00 0.13 0.13 90 1007.9
20260504000023 6 72 0.0 0.0 0.00 0.13 0.13 90 1008.0
20260503235521 6 71 0.0 0.0 0.00 0.13 0.13 90 1007.7
20260503235017 6 72 0.0 0.0 0.00 0.13 0.13 90 1007.7
20260503234515 6 72 1.6 1.6 0.00 0.13 0.13 89 1007.9
20260503234014 6 71 0.0 0.0 0.00 0.13 0.13 89 1007.8
20260503233509 6 82 1.6 1.6 0.00 0.13 0.13 89 1008.0
20260503233005 6 86 1.6 1.6 0.00 0.13 0.13 89 1008.0
20260503232502 6 126 0.0 0.0 0.00 0.13 0.13 89 1008.0
20260503232000 6 126 0.0 0.0 0.00 0.13 0.13 89 1008.1
20260503231458 6 126 0.0 0.0 0.00 0.13 0.13 89 1008.1
20260503230954 6 126 0.0 0.0 0.00 0.13 0.13 88 1008.3
20260503230450 6 126 0.0 0.0 0.00 0.13 0.13 88 1008.1
20260503225948 6 127 0.0 0.0 0.00 0.13 0.13 88 1008.4
20260503225445 6 127 1.6 1.6 0.18 0.13 0.13 87 1008.2
20260503224940 6 130 1.6 3.2 0.18 0.13 0.13 87 1008.3
20260503224437 6 143 3.2 3.2 0.13 0.10 0.10 86 1008.4
20260503223935 6 136 3.2 3.2 0.13 0.10 0.10 85 1008.5
20260503223433 6 124 1.6 1.6 0.00 0.08 0.08 85 1008.8
20260503222928 6 123 1.6 1.6 0.18 0.08 0.08 83 1008.6
20260503222427 6 123 3.2 1.6 0.18 0.08 0.08 82 1008.7
20260503221925 6 137 4.8 4.8 0.00 0.05 0.05 79 1008.7
20260503221423 6 136 8.0 9.7 0.13 0.05 0.05 79 1008.7
20260503220919 7 176 0.0 1.6 0.13 0.05 0.05 77 1008.6
20260503220416 7 186 1.6 1.6 0.18 0.03 0.03 74 1008.6
20260503215913 7 153 0.0 1.6 0.18 0.03 0.03 71 1008.6
20260503215410 8 207 3.2 3.2 0.00 0.00 0.00 69 1009.0
20260503214908 8 197 1.6 1.6 0.00 0.00 0.00 66 1008.7
20260503214405 8 185 0.0 1.6 0.00 0.00 0.00 64 1008.3
20260503213902 9 166 0.0 1.6 0.00 0.00 0.00 61 1008.2
20260503213400 9 184 1.6 1.6 0.00 0.00 0.00 55 1008.1
20260503212856 10 169 1.6 3.2 0.00 0.00 0.00 54 1008.4
20260503212354 10 188 1.6 1.6 0.00 0.00 0.00 53 1008.0
20260503211851 10 190 3.2 4.8 0.00 0.00 0.00 49 1008.0
20260503211348 11 206 1.6 3.2 0.00 0.00 0.00 51 1008.1
20260503210843 11 200 3.2 3.2 0.00 0.00 0.00 48 1007.8
20260503210341 11 150 3.2 4.8 0.00 0.00 0.00 48 1007.9
20260503205835 11 202 1.6 3.2 0.00 0.00 0.00 47 1008.0
20260503205332 11 232 9.7 12.9 0.00 0.00 0.00 46 1008.0
20260503204829 11 207 3.2 3.2 0.00 0.00 0.00 43 1008.1
20260503204326 11 199 0.0 1.6 0.00 0.00 0.00 44 1008.1
20260503203823 12 207 1.6 1.6 0.00 0.00 0.00 44 1008.2
20260503203321 12 189 3.2 3.2 0.00 0.00 0.00 43 1008.3
20260503202817 12 197 1.6 1.6 0.00 0.00 0.00 44 1008.1
20260503202316 12 205 4.8 6.4 0.00 0.00 0.00 43 1008.2
20260503201814 13 146 8.0 12.9 0.00 0.00 0.00 43 1008.2
20260503201310 13 214 3.2 3.2 0.00 0.00 0.00 45 1008.1
20260503200808 13 138 3.2 3.2 0.00 0.00 0.00 44 1008.0
20260503200303 13 205 3.2 3.2 0.00 0.00 0.00 43 1008.3
20260503195801 13 171 4.8 4.8 0.00 0.00 0.00 39 1008.7
20260503195257 12 212 3.2 3.2 0.00 0.00 0.00 41 1008.8
20260503194755 12 193 1.6 1.6 0.00 0.00 0.00 42 1008.9
20260503194250 12 200 1.6 1.6 0.00 0.00 0.00 40 1009.0
20260503193747 12 245 6.4 6.4 0.00 0.00 0.00 37 1009.2
20260503193243 13 204 3.2 3.2 0.00 0.00 0.00 35 1009.2
20260503192739 12 204 6.4 6.4 0.00 0.00 0.00 34 1009.5
20260503192234 11 243 8.0 11.3 0.00 0.00 0.00 33 1009.6
20260503191731 11 192 3.2 3.2 0.00 0.00 0.00 35 1009.7
20260503191228 11 237 14.5 16.1 0.00 0.00 0.00 33 1009.6
20260503190725 12 215 6.4 6.4 0.00 0.00 0.00 34 1009.8
20260503190221 12 201 3.2 6.4 0.00 0.00 0.00 32 1009.8
20260503185719 12 258 4.8 4.8 0.00 0.00 0.00 31 1010.0
20260503185214 12 226 11.3 12.9 0.00 0.00 0.00 28 1010.0
20260503184709 12 259 4.8 4.8 0.00 0.00 0.00 29 1010.0
20260503184206 12 189 8.0 9.7 0.00 0.00 0.00 28 1010.1
20260503183702 11 220 8.0 9.7 0.00 0.00 0.00 28 1010.3
20260503183200 11 201 6.4 6.4 0.00 0.00 0.00 32 1010.1
20260503182658 11 192 8.0 11.3 0.00 0.00 0.00 33 1010.3
20260503182156 10 195 6.4 6.4 0.00 0.00 0.00 35 1010.4
20260503181652 11 224 9.7 12.9 0.00 0.00 0.00 33 1010.7
20260503181149 11 241 4.8 4.8 0.00 0.00 0.00 31 1010.8
20260503180646 11 207 4.8 4.8 0.00 0.00 0.00 35 1010.6
20260503180144 11 225 8.0 11.3 0.00 0.00 0.00 40 1010.7
20260503175641 10 228 8.0 11.3 0.00 0.00 0.00 42 1010.8
20260503175138 9 188 6.4 6.4 0.00 0.00 0.00 43 1010.9
20260503174634 8 211 8.0 9.7 0.00 0.00 0.00 46 1011.2
20260503174132 8 232 3.2 3.2 0.00 0.00 0.00 50 1011.0
20260503173626 8 247 9.7 12.9 0.00 0.00 0.00 49 1011.3
20260503173123 8 242 3.2 9.7 0.00 0.00 0.00 50 1011.4
20260503172620 9 203 8.0 9.7 0.00 0.00 0.00 47 1011.3
20260503172118 9 244 6.4 6.4 0.00 0.00 0.00 47 1011.3
20260503171614 9 258 9.7 12.9 0.00 0.00 0.00 47 1011.2
20260503171111 10 238 6.4 6.4 0.00 0.00 0.00 47 1011.4
20260503170608 8 197 4.8 4.8 0.00 0.00 0.00 49 1011.5
20260503170105 8 232 6.4 6.4 0.00 0.00 0.00 48 1011.6
20260503151000 7 210 6.4 6.4 0.00 0.00 0.00 63 1012.7
20260503150456 7 203 6.4 6.4 0.00 0.00 0.00 63 1012.8
20260503131349 6 145 6.4 6.4 0.00 0.00 0.00 53 1013.1
20260503130847 6 200 3.2 3.2 0.00 0.00 0.00 55 1013.1
20260503130344 6 154 6.4 6.4 0.00 0.00 0.00 54 1013.1
20260503110738 0 291 0.0 0.0 0.00 0.00 0.00 71 1013.1
20260503110235 0 291 0.0 0.0 0.00 0.00 0.00 75 1013.4
20260503100201 -2 291 0.0 0.0 0.00 0.00 0.00 85 1013.3
20260503090126 -2 291 0.0 0.0 0.00 0.00 0.00 83 1013.3
20260503081602 -1 291 0.0 0.0 0.00 0.00 0.00 81 1013.4
20260503081059 -1 291 0.0 0.0 0.00 0.00 0.00 81 1013.4
20260503080554 -1 291 0.0 0.0 0.00 0.00 0.00 80 1013.4
20260503072529 -1 291 0.0 0.0 0.00 0.00 0.00 79 1013.5
20260503072026 -1 291 0.0 0.0 0.00 0.00 0.00 79 1013.2
20260503071522 0 291 0.0 0.0 0.00 0.00 0.00 77 1013.4
20260503071019 0 291 0.0 0.0 0.00 0.00 0.00 76 1013.4
20260503070516 0 291 0.0 0.0 0.00 0.00 0.00 75 1013.7
20260503054939 0 291 0.0 0.0 0.00 0.00 0.00 81 1013.9
20260503054436 0 291 0.0 0.0 0.00 0.00 0.00 81 1013.7
20260503053933 0 291 0.0 0.0 0.00 0.00 0.00 80 1013.9
20260503053431 0 291 0.0 0.0 0.00 0.00 0.00 79 1014.0
20260503052927 0 291 0.0 0.0 0.00 0.00 0.00 79 1014.2
20260503052425 0 291 0.0 0.0 0.00 0.00 0.00 78 1014.1
20260503051921 0 290 0.0 0.0 0.00 0.00 0.00 78 1014.2
20260503051417 0 282 0.0 0.0 0.00 0.00 0.00 78 1014.1
20260503050914 0 282 0.0 0.0 0.00 0.00 0.00 78 1014.0
20260503050410 0 282 0.0 0.0 0.00 0.00 0.00 78 1014.1
20260503045908 0 282 0.0 0.0 0.00 0.00 0.00 79 1014.3
20260503045405 0 282 0.0 0.0 0.00 0.00 0.00 79 1014.2
20260503044902 0 282 0.0 0.0 0.00 0.00 0.00 79 1014.1
20260503044359 0 282 0.0 0.0 0.00 0.00 0.00 79 1014.2
20260503043856 0 282 0.0 0.0 0.00 0.00 0.00 78 1014.4
20260503043353 0 282 0.0 0.0 0.00 0.00 0.00 78 1014.6
20260503042849 0 282 0.0 0.0 0.00 0.00 0.00 78 1014.4
20260503042346 0 282 0.0 0.0 0.00 0.00 0.00 78 1014.2
20260503041841 0 282 0.0 0.0 0.00 0.00 0.00 78 1014.2
20260503041339 1 282 0.0 0.0 0.00 0.00 0.00 77 1014.3
20260503040837 1 282 0.0 0.0 0.00 0.00 0.00 75 1014.4
20260503040334 1 282 0.0 0.0 0.00 0.00 0.00 75 1014.4
20260503035831 1 282 0.0 0.0 0.00 0.00 0.00 75 1014.3
20260503035328 1 282 0.0 0.0 0.00 0.00 0.00 74 1014.4
20260503034825 1 282 0.0 0.0 0.00 0.00 0.00 74 1014.4
20260503034323 1 279 0.0 0.0 0.00 0.00 0.00 74 1014.5
20260503033820 1 278 0.0 0.0 0.00 0.00 0.00 74 1014.5
20260503033317 1 278 0.0 0.0 0.00 0.00 0.00 74 1014.3
20260503032815 1 278 0.0 0.0 0.00 0.00 0.00 73 1014.5
20260503032314 1 278 0.0 0.0 0.00 0.00 0.00 73 1014.3
20260503031811 1 278 0.0 0.0 0.00 0.00 0.00 72 1014.4
20260503031309 1 278 0.0 0.0 0.00 0.00 0.00 71 1014.2
20260503030804 1 278 0.0 0.0 0.00 0.00 0.00 70 1014.4